Date String (YYYY-MM-DD hh:mm:ss) UTC,Instrument flags,Ambient pressure (hPa),Sample flow (lpm),Bypass flow (lpm),Sample temperature (°C),Ambient temperature (°C),ASC tube jacket temperature (°C),LED temperature (°C),Box temperature (°C),Sample RH (%),Span deviation,Mass concentration (μg/m³),Mass concentration (μg/m³),Mass concentration (μg/m³)
DateTimeUTC,F1_M11,P_M11,Q1_M11,Q2_M11,T1_M11,T2_M11,T3_M11,T4_M11,T5_M11,U1_M11,ZSPAN_M11,X0_M11,X2_M11,X1_M11
2022-03-05 14:00:00,,0815.4,5.00,0.00,23.7,23.1,00.0,32.7,25.5,18.2,0000.2,0015.40,0010.40,0009.53
2022-03-05 14:01:00,,0815.6,5.00,0.00,23.7,23.1,00.0,32.7,25.5,18.2,-000.1,0015.46,0010.40,0009.53
2022-03-05 14:02:00,,0816.0,5.00,0.00,23.7,23.1,00.0,32.7,25.5,18.2,-000.4,0015.12,0010.39,0009.51
2022-03-05 14:03:00,,0815.9,5.00,0.00,23.7,23.0,00.0,32.7,25.5,18.2,-000.5,0015.08,0010.37,0009.51
2022-03-05 14:04:00,,0816.0,5.00,0.00,23.7,23.0,00.0,32.7,25.5,18.2,-000.7,0015.60,0010.35,0009.48
2022-03-05 14:05:00,,0816.0,5.02,0.00,23.7,23.0,00.0,32.7,25.5,18.2,-000.7,0016.23,0010.40,0009.50
2022-03-05 14:06:00,,0816.0,4.99,0.00,23.7,23.0,00.0,32.7,25.5,18.3,-000.6,0016.20,0010.36,0009.47
2022-03-05 14:07:00,,0816.1,5.00,0.00,23.7,23.0,00.0,32.7,25.5,18.4,-000.7,0016.14,0010.31,0009.43
2022-03-05 14:08:00,,0816.0,5.02,0.00,23.7,23.0,00.0,32.7,25.5,18.3,-000.7,0016.29,0010.27,0009.38
2022-03-05 14:09:00,,0815.9,5.00,0.00,23.7,23.0,00.0,32.7,25.5,18.2,-000.9,0016.41,0010.26,0009.35
2022-03-05 14:10:00,,0815.6,4.99,0.00,23.7,23.0,00.0,32.7,25.5,18.2,-000.8,0016.40,0010.24,0009.32
2022-03-05 14:11:00,,0815.6,5.00,0.00,23.7,22.9,00.0,32.7,25.4,18.2,-000.8,0016.36,0010.22,0009.27
2022-03-05 14:12:00,,0815.7,5.01,0.00,23.7,22.9,00.0,32.7,25.4,18.2,-000.6,0016.30,0010.17,0009.23
2022-03-05 14:13:00,,0815.7,5.01,0.00,23.6,22.9,00.0,32.7,25.4,18.2,-000.3,0016.37,0010.17,0009.19
2022-03-05 14:14:00,,0815.7,5.00,0.00,23.6,22.9,00.0,32.7,25.4,18.2,-000.3,0016.82,0010.12,0009.14
2022-03-05 14:15:00,,0815.7,4.99,0.00,23.6,22.9,00.0,32.7,25.4,18.2,-000.2,0016.36,0010.08,0009.10
2022-03-05 14:16:00,,0815.7,4.99,0.00,23.6,22.9,00.0,32.7,25.3,18.2,-000.1,0015.88,0010.07,0009.06
2022-03-05 14:17:00,,0815.7,5.00,0.00,23.6,22.9,00.0,32.7,25.4,18.2,-000.0,0015.80,0010.06,0009.06
2022-03-05 14:18:00,,0815.8,5.02,0.00,23.6,22.9,00.0,32.7,25.4,18.1,-000.1,0015.91,0010.06,0009.06
2022-03-05 14:19:00,,0815.8,5.00,0.00,23.6,22.8,00.0,32.6,25.3,18.1,-000.2,0016.00,0010.10,0009.06
2022-03-05 14:20:00,,0815.8,5.00,0.00,23.6,22.8,00.0,32.6,25.3,18.0,0000.1,0016.13,0010.09,0009.07
2022-03-05 14:21:00,,0815.8,5.00,0.00,23.6,22.8,00.0,32.6,25.3,18.0,0000.0,0016.41,0010.08,0009.08
2022-03-05 14:22:00,,0815.9,5.00,0.00,23.5,22.8,00.0,32.6,25.3,17.9,-000.1,0016.35,0010.11,0009.10
2022-03-05 14:23:00,,0815.9,5.01,0.00,23.5,22.7,00.0,32.6,25.2,17.9,-000.3,0016.34,0010.13,0009.12
2022-03-05 14:24:00,,0816.0,5.00,0.00,23.5,22.7,00.0,32.6,25.2,17.9,-000.4,0016.93,0010.12,0009.12
2022-03-05 14:25:00,,0816.0,4.99,0.00,23.5,22.7,00.0,32.6,25.2,17.8,-000.1,0017.02,0010.17,0009.15
2022-03-05 14:26:00,,0815.9,5.01,0.00,23.5,22.6,00.0,32.6,25.1,17.8,-000.2,0017.01,0010.21,0009.17
2022-03-05 14:27:00,,0816.0,4.99,0.00,23.4,22.6,00.0,32.6,25.1,17.9,-000.3,0017.66,0010.25,0009.19
2022-03-05 14:28:00,,0816.0,5.01,0.00,23.4,22.6,00.0,32.5,25.1,17.9,-000.5,0018.30,0010.27,0009.19
2022-03-05 14:29:00,,0816.0,5.00,0.00,23.4,22.6,00.0,32.5,25.1,17.9,-000.4,0018.19,0010.28,0009.21
2022-03-05 14:30:00,,0816.0,5.00,0.00,23.4,22.6,00.0,32.5,25.1,18.0,-000.2,0018.00,0010.25,0009.23
2022-03-05 14:31:00,,0816.0,5.00,0.00,23.4,22.6,00.0,32.5,25.1,18.0,-000.4,0017.95,0010.23,0009.22
2022-03-05 14:32:00,,0816.0,4.99,0.00,23.3,22.5,00.0,32.5,25.0,18.0,-000.5,0018.12,0010.23,0009.19
2022-03-05 14:33:00,,0816.0,5.00,0.00,23.3,22.5,00.0,32.5,25.0,18.0,-000.6,0018.31,0010.21,0009.18
2022-03-05 14:34:00,,0816.2,5.00,0.00,23.3,22.5,00.0,32.4,25.0,18.0,-000.5,0019.43,0010.15,0009.15
2022-03-05 14:35:00,,0816.3,5.00,0.00,23.3,22.5,00.0,32.4,25.0,18.0,-000.3,0019.26,0010.17,0009.15
2022-03-05 14:36:00,,0816.5,5.00,0.00,23.3,22.5,00.0,32.4,25.0,18.0,-000.1,0018.84,0010.13,0009.12
2022-03-05 14:37:00,,0816.3,5.00,0.00,23.3,22.5,00.0,32.4,25.0,17.9,0000.1,0018.69,0010.10,0009.11
2022-03-05 14:38:00,,0816.1,5.01,0.00,23.2,22.5,00.0,32.4,25.0,18.0,0000.2,0018.21,0010.08,0009.11
2022-03-05 14:39:00,,0816.1,5.00,0.00,23.2,22.5,00.0,32.4,24.9,18.0,0000.2,0018.55,0010.13,0009.13
2022-03-05 14:40:00,,0816.2,5.00,0.00,23.2,22.4,00.0,32.4,24.9,17.9,0000.1,0019.58,0010.19,0009.15
2022-03-05 14:41:00,,0816.2,4.99,0.00,23.2,22.4,00.0,32.3,24.9,18.0,0000.2,0019.71,0010.23,0009.17
2022-03-05 14:42:00,,0816.2,5.00,0.00,23.2,22.4,00.0,32.3,24.9,18.0,0000.5,0019.64,0010.28,0009.20
2022-03-05 14:43:00,,0816.3,5.00,0.00,23.2,22.4,00.0,32.3,24.9,18.0,0000.6,0019.27,0010.31,0009.23
2022-03-05 14:44:00,,0816.3,5.00,0.00,23.1,22.4,00.0,32.3,24.9,18.1,0000.8,0019.40,0010.37,0009.27
2022-03-05 14:45:00,,0816.3,4.99,0.00,23.1,22.4,00.0,32.3,24.9,18.1,0000.9,0018.61,0010.41,0009.30
2022-03-05 14:46:00,,0816.3,5.00,0.00,23.1,22.4,00.0,32.3,24.9,18.1,0001.0,0018.14,0010.44,0009.33
2022-03-05 14:47:00,,0816.3,5.00,0.00,23.1,22.4,00.0,32.3,24.9,18.1,0000.7,0018.33,0010.53,0009.37
2022-03-05 14:48:00,,0816.3,5.01,0.00,23.1,22.4,00.0,32.2,24.9,18.1,0000.4,0018.49,0010.56,0009.39
2022-03-05 14:49:00,,0816.3,5.00,0.00,23.1,22.4,00.0,32.2,24.9,18.2,0000.2,0018.47,0010.54,0009.40
2022-03-05 14:50:00,,0816.4,5.01,0.00,23.1,22.4,00.0,32.2,24.9,18.2,0000.3,0017.67,0010.53,0009.40
2022-03-05 14:51:00,,0816.4,5.00,0.00,23.1,22.4,00.0,32.2,24.9,18.1,0000.3,0016.82,0010.50,0009.39
2022-03-05 14:52:00,,0816.4,4.99,0.00,23.1,22.4,00.0,32.2,24.9,18.0,0000.3,0016.97,0010.47,0009.34
2022-03-05 14:53:00,,0816.4,5.01,0.00,23.1,22.4,00.0,32.2,24.9,17.9,0000.2,0017.20,0010.41,0009.28
2022-03-05 14:54:00,,0816.5,5.00,0.00,23.1,22.4,00.0,32.2,24.9,17.8,0000.2,0017.08,0010.33,0009.22
2022-03-05 14:55:00,,0816.5,4.99,0.00,23.1,22.4,00.0,32.2,24.9,17.7,0000.3,0016.87,0010.23,0009.14
2022-03-05 14:56:00,,0816.6,5.00,0.00,23.1,22.4,00.0,32.2,24.9,17.7,0000.2,0016.47,0010.15,0009.06
2022-03-05 14:57:00,,0816.6,5.00,0.00,23.1,22.4,00.0,32.2,24.9,17.5,0000.2,0016.26,0010.06,0008.98
2022-03-05 14:58:00,,0816.8,5.00,0.00,23.1,22.4,00.0,32.2,24.9,17.5,0000.3,0016.57,0009.98,0008.89
2022-03-05 14:59:00,,0816.5,5.00,0.00,23.1,22.4,00.0,32.2,24.9,17.5,0000.5,0016.86,0009.92,0008.81
